De Queen, AR

8:52 PM CST on February 24, 2017 (GMT -0600)
Helms Sevier County

Weather History for KDEQ - March, 2014

Change the Weather History Date:

Friday, March 28, 2014

  Actual Average Record
Temperature  
Mean Temperature 66 °F 56 °F  
Max Temperature 77 °F 69 °F 88 °F (1967)
Min Temperature 54 °F 43 °F 27 °F (1942)
Degree Days  
Heating Degree Days 0 9  
Month to date heating degree days 432 349  
Since 1 July heating degree days 3204 2840  
Cooling Degree Days 1 0  
Month to date cooling degree days 1 0  
Year to date cooling degree days 1 2  
Growing Degree Days 17 (Base 50)    
Moisture  
Dew Point 62 °F    
Average Humidity 84    
Maximum Humidity 100    
Minimum Humidity 68    
Precipitation  
Precipitation 0.02 in 0.19 in 4.50 in (1977)
Month to date precipitation 3.10 4.06  
Year to date precipitation 5.04 11.06  
Snow  
Snow 0.00 in - - ()
Month to date snowfall T  
Since 1 July snowfall 1.2  
Snow Depth 0.00 in    
Sea Level Pressure  
Sea Level Pressure 29.82 in    
Wind  
Wind Speed 6 mph (East)    
Max Wind Speed 16 mph    
Max Gust Speed 23 mph    
Visibility 5 miles    
Events Rain , Thunderstorm    
T = Trace of Precipitation, MM = Missing Value Source: NWS Daily Summary

Daily Weather History Graph

Daily Weather History Graph

Search for Another Location

Airport or City:

Trip Planner

Search our weather history database for the weather conditions in past years. The results will help you decide how hot, cold, wet, or windy it might be!

Date:

Astronomy

Mar. 28, 2014 Rise Set
Actual Time 7:10 AM CDT 7:35 PM CDT
Civil Twilight 6:45 AM CDT 8:00 PM CDT
Nautical Twilight 6:15 AM CDT 8:29 PM CDT
Astronomical Twilight 5:45 AM CDT 8:59 PM CDT
Moon 5:35 AM CDT (3/28) 5:37 PM CDT (3/28)
Length of Visible Light 13h 15m
Length of Day
12h 25m
Waning Crescent, 6% of the Moon is Illuminated
Mar 28
Waning Crescent
Mar 30
New
Apr 7
First Quarter
Apr 15
Full
Apr 22
Last Quarter

Hourly Weather History & Observations

Time (CDT) Temp. Dew Point Humidity Pressure Visibility Wind Dir Wind Speed Gust Speed Precip Events Conditions
12:00 AM 64.0 °F 62.1 °F 93% 29.77 in 5.0 mi SSE 3.5 mph - N/A   Mostly Cloudy
12:29 AM 63.0 °F 62.1 °F 97% 29.77 in 4.0 mi ESE 4.6 mph - N/A   Overcast
12:53 AM 64.0 °F 62.1 °F 93% 29.77 in 4.0 mi East 4.6 mph - N/A   Overcast
1:53 AM 63.0 °F 62.1 °F 97% 29.77 in 3.0 mi NE 3.5 mph - N/A   Overcast
2:53 AM 63.0 °F 63.0 °F 100% 29.77 in 3.0 mi NE 5.8 mph - N/A   Overcast
3:14 AM 64.0 °F 63.0 °F 96% 29.78 in 4.0 mi East 4.6 mph - N/A   Overcast
3:24 AM 64.0 °F 63.0 °F 96% 29.78 in 4.0 mi East 4.6 mph - N/A   Overcast
3:53 AM 64.0 °F 63.0 °F 96% 29.76 in 4.0 mi East 5.8 mph - N/A   Overcast
4:12 AM 64.0 °F 63.0 °F 96% 29.77 in 4.0 mi East 4.6 mph - N/A   Overcast
4:41 AM 64.0 °F 63.0 °F 96% 29.77 in 4.0 mi East 5.8 mph - N/A   Overcast
4:53 AM 64.0 °F 63.0 °F 96% 29.77 in 4.0 mi ESE 4.6 mph - N/A   Overcast
5:26 AM 64.0 °F 63.0 °F 96% 29.79 in 2.5 mi East 5.8 mph - 0.00 in Rain Light Rain
5:53 AM 63.0 °F 63.0 °F 100% 29.78 in 2.5 mi East 5.8 mph - 0.00 in Rain Light Rain
6:08 AM 63.0 °F 63.0 °F 100% 29.80 in 3.0 mi East 4.6 mph - 0.00 in   Overcast
6:53 AM 63.0 °F 63.0 °F 100% 29.80 in 3.0 mi East 3.5 mph - 0.00 in   Overcast
7:00 AM 63.0 °F 63.0 °F 100% 29.81 in 2.5 mi East 3.5 mph - N/A   Overcast
7:33 AM 63.0 °F 63.0 °F 100% 29.82 in 1.2 mi East 4.6 mph - N/A   Overcast
7:53 AM 63.0 °F 63.0 °F 100% 29.83 in 1.5 mi ESE 4.6 mph - N/A   Overcast
8:53 AM 64.0 °F 63.0 °F 96% 29.84 in 1.8 mi ESE 8.1 mph - N/A   Overcast
9:06 AM 64.0 °F 63.0 °F 96% 29.85 in 2.0 mi ESE 8.1 mph - N/A   Overcast
9:29 AM 64.9 °F 64.0 °F 97% 29.85 in 3.0 mi ESE 8.1 mph - N/A   Overcast
9:53 AM 64.9 °F 64.0 °F 97% 29.84 in 3.0 mi ESE 6.9 mph - N/A   Overcast
10:30 AM 66.0 °F 64.0 °F 93% 29.86 in 4.0 mi ESE 4.6 mph - N/A   Overcast
10:53 AM 66.9 °F 64.9 °F 93% 29.84 in 4.0 mi ESE 5.8 mph - N/A   Overcast
11:49 AM 69.8 °F 64.4 °F 83% 29.86 in 5.0 mi SSE 8.1 mph - N/A   Haze
11:53 AM 70.0 °F 64.9 °F 84% 29.85 in 5.0 mi SSE 6.9 mph - N/A   Haze
12:48 PM 69.8 °F 66.2 °F 88% 29.84 in 4.0 mi East 4.6 mph - 0.00 in Thunderstorm Mostly Cloudy
12:53 PM 70.0 °F 66.9 °F 90% 29.83 in 4.0 mi North - - 0.00 in Thunderstorm Mostly Cloudy
1:00 PM 71.1 °F 66.9 °F 87% 29.82 in 4.0 mi East 5.8 mph - N/A   Scattered Clouds
1:20 PM 71.1 °F 66.9 °F 87% 29.85 in 4.0 mi NNW 8.1 mph - N/A   Mostly Cloudy
1:53 PM 72.0 °F 66.0 °F 81% 29.83 in 6.0 mi WNW 5.8 mph - N/A   Haze
2:53 PM 75.0 °F 64.9 °F 71% 29.79 in 6.0 mi Variable 3.5 mph - N/A   Haze
3:53 PM 75.0 °F 64.9 °F 71% 29.78 in 6.0 mi Calm Calm - N/A   Haze
4:53 PM 75.0 °F 64.0 °F 69% 29.76 in 7.0 mi Calm Calm - N/A   Clear
5:44 PM 73.0 °F 62.1 °F 68% 29.77 in 7.0 mi WNW 4.6 mph - N/A Thunderstorm Clear
5:53 PM 73.0 °F 62.1 °F 68% 29.77 in 8.0 mi WNW 6.9 mph - N/A   Clear
6:26 PM 70.0 °F 60.1 °F 71% 29.82 in 3.0 mi Calm Calm - 0.00 in Rain , Thunderstorm Light Thunderstorms and Rain
6:41 PM 66.0 °F 62.1 °F 87% 29.83 in 6.0 mi SSW 3.5 mph - 0.00 in Rain Light Rain
6:53 PM 66.9 °F 60.1 °F 79% 29.82 in 3.0 mi SW 12.7 mph 23.0 mph 0.02 in Rain Light Rain
7:53 PM 64.0 °F 59.0 °F 84% 29.81 in 10.0 mi North 12.7 mph 19.6 mph 0.00 in   Mostly Cloudy
8:53 PM 60.1 °F 55.0 °F 83% 29.85 in 10.0 mi NNE 11.5 mph - N/A   Clear
9:53 PM 61.0 °F 55.9 °F 83% 29.86 in 10.0 mi NE 11.5 mph - N/A   Clear
10:38 PM 60.1 °F 54.0 °F 80% 29.91 in 10.0 mi NNE 15.0 mph 21.9 mph N/A   Overcast
10:53 PM 59.0 °F 53.1 °F 81% 29.93 in 10.0 mi NE 12.7 mph - N/A   Mostly Cloudy
11:13 PM 59.0 °F 53.1 °F 81% 29.95 in 10.0 mi NE 9.2 mph - N/A   Mostly Cloudy
11:53 PM 57.0 °F 52.0 °F 83% 29.96 in 10.0 mi North 4.6 mph - N/A   Scattered Clouds